Tulsa, OK

1:19 AM CST on February 18, 2018 (GMT -0600)
Tulsa International

Weather History for KTUL - March, 2013

Change the Weather History Date:

Monday, March 18, 2013

  Actual Average Record
Temperature  
Mean Temperature 50 °F 52 °F  
Max Temperature 62 °F 63 °F 99 °F (1907)
Min Temperature 38 °F 41 °F 12 °F (1923)
Degree Days  
Heating Degree Days 15 13  
Month to date heating degree days 299 287  
Since 1 July heating degree days 2971 3198  
Cooling Degree Days 0 0  
Month to date cooling degree days 4 0  
Year to date cooling degree days 6 1  
Moisture  
Dew Point 36 °F    
Average Humidity 63    
Maximum Humidity 100    
Minimum Humidity 26    
Precipitation  
Precipitation 0.01 in 0.11 in 2.75 in (2008)
Month to date precipitation 0.28 1.85  
Year to date precipitation 5.00 5.36  
Sea Level Pressure  
Sea Level Pressure 29.88 in    
Wind  
Wind Speed 9 mph (North)    
Max Wind Speed 18 mph    
Max Gust Speed 23 mph    
Visibility 9 miles    
Events Rain    
T = Trace of Precipitation, MM = Missing Value Source: NWS Daily Summary

Daily Weather History Graph

Daily Weather History Graph

Search for Another Location

Airport or City:

Trip Planner

Search our weather history database for the weather conditions in past years. The results will help you decide how hot, cold, wet, or windy it might be!

Date:

Astronomy

Mar. 18, 2013 Rise Set
Actual Time 7:29 AM CDT 7:33 PM CDT
Civil Twilight 7:04 AM CDT 7:59 PM CDT
Nautical Twilight 6:34 AM CDT 8:29 PM CDT
Astronomical Twilight 6:03 AM CDT 8:59 PM CDT
Moon 11:40 AM CDT 1:24 AM CDT
Length of Visible Light 12h 55m
Length of Day
12h 04m
Waxing Crescent, 41% of the Moon is Illuminated
Mar 18
Waxing Crescent
Mar 19
First Quarter
Mar 27
Full
Apr 2
Last Quarter
Apr 10
New

Hourly Weather History & Observations

Time (CDT) Temp. Windchill Dew Point Humidity Pressure Visibility Wind Dir Wind Speed Gust Speed Precip Events Conditions
12:42 AM 43.0 °F 41.3 °F 42.1 °F 97% 29.70 in 4.0 mi East 3.5 mph - 0.00 in   Light Drizzle
12:53 AM 43.0 °F 39.5 °F 42.1 °F 97% 29.70 in 3.0 mi ENE 5.8 mph - 0.00 in   Light Drizzle
1:35 AM 43.0 °F 38.8 °F 42.1 °F 97% 29.73 in 7.0 mi North 6.9 mph - 0.00 in   Overcast
1:53 AM 43.0 °F 40.3 °F 42.1 °F 97% 29.72 in 7.0 mi ENE 4.6 mph - 0.01 in Rain Light Rain
2:03 AM 43.0 °F - 42.1 °F 97% 29.72 in 7.0 mi Calm Calm - 0.00 in Rain Light Rain
2:53 AM 43.0 °F 37.2 °F 42.1 °F 97% 29.76 in 8.0 mi NNW 10.4 mph - 0.00 in   Overcast
3:05 AM 43.0 °F 37.2 °F 41.0 °F 93% 29.75 in 8.0 mi North 10.4 mph - N/A   Overcast
3:15 AM 43.0 °F 37.2 °F 41.0 °F 93% 29.76 in 8.0 mi North 10.4 mph - N/A   Overcast
3:25 AM 42.1 °F 35.2 °F 41.0 °F 96% 29.75 in 8.0 mi North 12.7 mph - N/A   Overcast
3:53 AM 42.1 °F 36.1 °F 39.9 °F 92% 29.76 in 9.0 mi North 10.4 mph - N/A   Overcast
4:53 AM 41.0 °F 34.3 °F 39.0 °F 93% 29.78 in 10.0 mi NNW 11.5 mph - N/A   Overcast
5:53 AM 39.9 °F - 39.0 °F 97% 29.81 in 9.0 mi Calm Calm - N/A   Mostly Cloudy
6:28 AM 39.0 °F 32.3 °F 37.9 °F 96% 29.82 in 9.0 mi NNW 10.4 mph - N/A   Scattered Clouds
6:53 AM 39.0 °F 33.4 °F 37.0 °F 93% 29.83 in 10.0 mi North 8.1 mph - N/A   Partly Cloudy
7:17 AM 39.0 °F 32.3 °F 37.9 °F 96% 29.85 in 9.0 mi NNW 10.4 mph - N/A   Mostly Cloudy
7:53 AM 39.9 °F 33.9 °F 37.9 °F 93% 29.88 in 9.0 mi NNW 9.2 mph - N/A   Overcast
8:34 AM 39.0 °F 32.8 °F 37.9 °F 96% 29.90 in 9.0 mi NW 9.2 mph - N/A   Scattered Clouds
8:53 AM 41.0 °F 34.3 °F 37.9 °F 89% 29.92 in 10.0 mi NNW 11.5 mph - N/A   Scattered Clouds
9:05 AM 41.0 °F 33.5 °F 37.9 °F 89% 29.92 in 10.0 mi NNW 13.8 mph - N/A   Mostly Cloudy
9:53 AM 42.1 °F 34.9 °F 37.9 °F 85% 29.93 in 10.0 mi NNW 13.8 mph - N/A   Overcast
10:53 AM 44.1 °F 38.1 °F 39.0 °F 82% 29.96 in 10.0 mi NNW 11.5 mph - N/A   Overcast
11:31 AM 45.0 °F 38.2 °F 39.0 °F 80% 29.97 in 9.0 mi North 15.0 mph - N/A   Overcast
11:53 AM 46.9 °F - 39.0 °F 74% 29.98 in 9.0 mi North 13.8 mph - N/A   Overcast
12:19 PM 50.0 °F - 39.0 °F 66% 29.97 in 10.0 mi North 15.0 mph - N/A   Scattered Clouds
12:53 PM 53.1 °F - 37.9 °F 57% 29.96 in 10.0 mi North 11.5 mph - N/A   Partly Cloudy
1:53 PM 57.0 °F - 35.1 °F 44% 29.96 in 10.0 mi North 13.8 mph 21.9 mph N/A   Clear
2:53 PM 59.0 °F - 33.1 °F 38% 29.93 in 10.0 mi North 13.8 mph 20.7 mph N/A   Clear
3:53 PM 60.1 °F - 28.9 °F 31% 29.93 in 10.0 mi North 10.4 mph - N/A   Partly Cloudy
4:53 PM 62.1 °F - 28.0 °F 28% 29.94 in 10.0 mi NNW 12.7 mph 18.4 mph N/A   Clear
5:53 PM 59.0 °F - 26.1 °F 28% 29.95 in 10.0 mi North 11.5 mph - N/A   Partly Cloudy
6:53 PM 57.0 °F - 26.1 °F 30% 29.96 in 10.0 mi North 10.4 mph - N/A   Clear
7:53 PM 55.9 °F - 21.0 °F 26% 29.97 in 10.0 mi NNE 8.1 mph - N/A   Clear
8:53 PM 51.1 °F - 23.0 °F 33% 30.00 in 10.0 mi North 5.8 mph - N/A   Scattered Clouds
9:53 PM 51.1 °F - 23.0 °F 33% 30.02 in 10.0 mi North 3.5 mph - N/A   Partly Cloudy
10:53 PM 45.0 °F - 25.0 °F 46% 30.05 in 10.0 mi Calm Calm - N/A   Clear
11:53 PM 45.0 °F - 28.0 °F 52% 30.05 in 10.0 mi Calm Calm - N/A   Clear